When you browse on this site, cookies collect data to enhance your experience and personalize the content and advertising you see.
Visit our Privacy Policy to learn more. By continuing to use the site, you agree to this use of cookies and data.
  • In Österreich
  • Länderverzeichnis
  • Für 7 Tage
  • Wassertemperatur
  • Satellitenkarten
  • Wetterkarte
  • News
  • Widgets
  • user-avatar
    Anmelden

    Stündliche Wetter Rohachiv

    Heute, 19 Mai, Sonntag

    Zeit Temperatur Niederschläge Wind Luftdruck Luftfeuchtigkeit
    00:00 +17°C° 0.4 mm 3 m/S 742 mmHg 95%
    01:00 +17°C° 0.4 mm 3 m/S 741 mmHg 96%
    02:00 +17°C° 0 mm 3 m/S 741 mmHg 97%
    03:00 +17°C° 0.3 mm 3 m/S 741 mmHg 96%
    04:00 +17°C° 0.3 mm 3 m/S 741 mmHg 96%
    05:00 +17°C° 0.3 mm 4 m/S 741 mmHg 95%
    06:00 +17°C° 0.1 mm 4 m/S 741 mmHg 94%
    07:00 +17°C° 0.1 mm 4 m/S 741 mmHg 93%
    08:00 +18°C° 0 mm 4 m/S 741 mmHg 91%
    09:00 +19°C° 0.2 mm 4 m/S 741 mmHg 87%
    10:00 +20°C° 0.2 mm 5 m/S 741 mmHg 83%
    11:00 +21°C° 0.2 mm 5 m/S 741 mmHg 79%
    12:00 +22°C° 0.7 mm 5 m/S 741 mmHg 78%
    13:00 +22°C° 0.7 mm 6 m/S 741 mmHg 76%
    14:00 +23°C° 0.7 mm 6 m/S 741 mmHg 74%
    15:00 +22°C° 0.3 mm 6 m/S 741 mmHg 77%
    16:00 +21°C° 0.3 mm 6 m/S 741 mmHg 79%
    17:00 +21°C° 0.3 mm 5 m/S 741 mmHg 81%
    18:00 +20°C° 0 mm 5 m/S 741 mmHg 83%
    19:00 +20°C° 0 mm 5 m/S 741 mmHg 84%
    20:00 +19°C° 0 mm 5 m/S 741 mmHg 85%
    21:00 +19°C° 0 mm 5 m/S 741 mmHg 87%
    22:00 +19°C° 0 mm 5 m/S 741 mmHg 88%
    23:00 +17°C° 0 mm 5 m/S 741 mmHg 89%

    Morgen, 20 Mai, Montag

    Zeit Temperatur Niederschläge Wind Luftdruck Luftfeuchtigkeit
    00:00 +17°C° 0.2 mm 5 m/S 741 mmHg 91%
    01:00 +16°C° 0.2 mm 5 m/S 741 mmHg 92%
    02:00 +16°C° 0.2 mm 5 m/S 741 mmHg 93%
    03:00 +16°C° 0.1 mm 5 m/S 741 mmHg 93%
    04:00 +16°C° 0.1 mm 5 m/S 741 mmHg 92%
    05:00 +16°C° 0.1 mm 6 m/S 740 mmHg 92%
    06:00 +17°C° 0.2 mm 6 m/S 741 mmHg 89%
    07:00 +18°C° 0.2 mm 7 m/S 741 mmHg 86%
    08:00 +20°C° 0.2 mm 8 m/S 741 mmHg 82%
    09:00 +21°C° 0 mm 8 m/S 741 mmHg 78%
    10:00 +23°C° 0 mm 8 m/S 741 mmHg 73%
    11:00 +24°C° 0 mm 8 m/S 741 mmHg 68%
    12:00 +24°C° 0.3 mm 9 m/S 741 mmHg 68%
    13:00 +24°C° 0.3 mm 9 m/S 741 mmHg 68%
    14:00 +26°C° 0.3 mm 9 m/S 741 mmHg 68%
    15:00 +24°C° 0.5 mm 8 m/S 741 mmHg 70%
    16:00 +24°C° 0.5 mm 8 m/S 741 mmHg 72%
    17:00 +23°C° 0.5 mm 7 m/S 741 mmHg 75%
    18:00 +22°C° 1.3 mm 7 m/S 740 mmHg 79%
    19:00 +21°C° 1.3 mm 6 m/S 740 mmHg 83%
    20:00 +20°C° 1.3 mm 6 m/S 740 mmHg 88%
    21:00 +19°C° 3 mm 5 m/S 740 mmHg 89%
    22:00 +19°C° 3 mm 4 m/S 740 mmHg 90%
    23:00 +18°C° 3 mm 4 m/S 740 mmHg 91%

    übermorgen, 21 Mai, Dienstag

    Zeit Temperatur Niederschläge Wind Luftdruck Luftfeuchtigkeit
    00:00 +18°C° 0.2 mm 4 m/S 740 mmHg 92%
    01:00 +18°C° 0.2 mm 4 m/S 740 mmHg 94%
    02:00 +17°C° 0.2 mm 5 m/S 740 mmHg 96%
    03:00 +16°C° 0.2 mm 5 m/S 739 mmHg 95%
    04:00 +16°C° 0.2 mm 5 m/S 739 mmHg 94%
    05:00 +16°C° 0.2 mm 5 m/S 739 mmHg 93%
    06:00 +16°C° 0 mm 5 m/S 739 mmHg 92%
    07:00 +16°C° 0 mm 6 m/S 739 mmHg 91%
    08:00 +16°C° 0 mm 6 m/S 739 mmHg 89%
    09:00 +16°C° 0.1 mm 6 m/S 740 mmHg 89%
    10:00 +16°C° 0.1 mm 5 m/S 740 mmHg 89%
    11:00 +16°C° 0.1 mm 5 m/S 740 mmHg 90%
    12:00 +18°C° 0.1 mm 4 m/S 740 mmHg 89%
    13:00 +18°C° 0.1 mm 4 m/S 740 mmHg 89%
    14:00 +18°C° 0.1 mm 3 m/S 739 mmHg 88%
    15:00 +19°C° 0.3 mm 3 m/S 739 mmHg 84%
    16:00 +20°C° 0.3 mm 3 m/S 739 mmHg 81%
    17:00 +21°C° 0.3 mm 3 m/S 739 mmHg 77%
    18:00 +19°C° 0.1 mm 3 m/S 739 mmHg 81%
    19:00 +18°C° 0.1 mm 2 m/S 739 mmHg 86%
    20:00 +17°C° 0.1 mm 2 m/S 739 mmHg 91%
    21:00 +16°C° 0 mm 2 m/S 739 mmHg 91%
    22:00 +15°C° 0 mm 2 m/S 740 mmHg 92%
    23:00 +14°C° 0 mm 2 m/S 740 mmHg 93%

    22 Mai, Mittwoch

    Zeit Temperatur Niederschläge Wind Luftdruck Luftfeuchtigkeit
    00:00 +14°C° 0 mm 2 m/S 740 mmHg 92%
    01:00 +13°C° 0 mm 2 m/S 740 mmHg 92%
    02:00 +13°C° 0 mm 2 m/S 740 mmHg 92%
    03:00 +12°C° 0 mm 2 m/S 740 mmHg 92%
    04:00 +12°C° 0 mm 2 m/S 740 mmHg 92%
    05:00 +12°C° 0 mm 2 m/S 740 mmHg 92%
    06:00 +13°C° 0 mm 2 m/S 741 mmHg 88%
    07:00 +14°C° 0 mm 3 m/S 741 mmHg 84%
    08:00 +17°C° 0 mm 3 m/S 741 mmHg 80%
    09:00 +18°C° 0 mm 3 m/S 741 mmHg 75%
    10:00 +19°C° 0 mm 3 m/S 741 mmHg 70%
    11:00 +21°C° 0 mm 4 m/S 741 mmHg 65%
    12:00 +21°C° 0 mm 4 m/S 741 mmHg 63%
    13:00 +21°C° 0 mm 3 m/S 741 mmHg 62%
    14:00 +22°C° 0 mm 3 m/S 741 mmHg 61%
    15:00 +22°C° 0.1 mm 3 m/S 740 mmHg 62%
    16:00 +23°C° 0.1 mm 2 m/S 740 mmHg 63%
    17:00 +23°C° 0.1 mm 2 m/S 740 mmHg 64%
    18:00 +20°C° 0 mm 2 m/S 740 mmHg 69%
    19:00 +19°C° 0 mm 2 m/S 740 mmHg 74%
    20:00 +18°C° 0 mm 2 m/S 740 mmHg 79%
    21:00 +17°C° 0 mm 2 m/S 740 mmHg 82%
    22:00 +16°C° 0 mm 2 m/S 740 mmHg 84%
    23:00 +15°C° 0 mm 2 m/S 740 mmHg 86%

    23 Mai, Donnerstag

    Zeit Temperatur Niederschläge Wind Luftdruck Luftfeuchtigkeit
    00:00 +14°C° 0 mm 3 m/S 740 mmHg 88%
    01:00 +13°C° 0 mm 3 m/S 740 mmHg 90%
    02:00 +13°C° 0 mm 3 m/S 740 mmHg 92%
    03:00 +13°C° 0 mm 3 m/S 740 mmHg 93%
    04:00 +12°C° 0 mm 3 m/S 740 mmHg 93%
    05:00 +12°C° 0 mm 3 m/S 740 mmHg 93%
    06:00 +13°C° 0 mm 3 m/S 740 mmHg 90%
    07:00 +16°C° 0 mm 3 m/S 740 mmHg 88%
    08:00 +17°C° 0 mm 3 m/S 740 mmHg 85%
    09:00 +18°C° 0 mm 3 m/S 740 mmHg 81%
    10:00 +19°C° 0 mm 3 m/S 740 mmHg 76%
    11:00 +21°C° 0 mm 3 m/S 740 mmHg 71%
    12:00 +21°C° 0.1 mm 3 m/S 740 mmHg 69%
    13:00 +22°C° 0.1 mm 3 m/S 740 mmHg 67%
    14:00 +24°C° 0.1 mm 3 m/S 740 mmHg 64%
    15:00 +22°C° 0.1 mm 3 m/S 740 mmHg 66%
    16:00 +22°C° 0.1 mm 3 m/S 739 mmHg 68%
    17:00 +22°C° 0.1 mm 3 m/S 739 mmHg 70%
    18:00 +20°C° 0.2 mm 3 m/S 739 mmHg 77%
    19:00 +19°C° 0.2 mm 3 m/S 739 mmHg 84%
    20:00 +17°C° 0.2 mm 3 m/S 739 mmHg 91%
    21:00 +17°C° 0.4 mm 3 m/S 739 mmHg 92%
    22:00 +16°C° 0.4 mm 3 m/S 740 mmHg 94%
    23:00 +14°C° 0.4 mm 3 m/S 740 mmHg 95%

    24 Mai, Freitag

    Zeit Temperatur Niederschläge Wind Luftdruck Luftfeuchtigkeit
    00:00 +14°C° 0 mm 3 m/S 740 mmHg 96%
    01:00 +14°C° 0 mm 3 m/S 739 mmHg 96%
    02:00 +13°C° 0 mm 3 m/S 739 mmHg 97%
    03:00 +14°C° 0.1 mm 3 m/S 739 mmHg 97%
    04:00 +14°C° 0.1 mm 3 m/S 740 mmHg 97%
    05:00 +14°C° 0.1 mm 3 m/S 740 mmHg 97%
    06:00 +14°C° 0.5 mm 3 m/S 740 mmHg 96%
    07:00 +14°C° 0.5 mm 4 m/S 740 mmHg 95%
    08:00 +14°C° 0.5 mm 4 m/S 740 mmHg 94%
    09:00 +14°C° 1.2 mm 4 m/S 740 mmHg 94%
    10:00 +13°C° 1.2 mm 4 m/S 740 mmHg 94%
    11:00 +13°C° 1.2 mm 4 m/S 740 mmHg 94%
    12:00 +13°C° 0.8 mm 4 m/S 740 mmHg 94%
    13:00 +13°C° 0.8 mm 4 m/S 740 mmHg 93%
    14:00 +13°C° 0.8 mm 4 m/S 739 mmHg 93%
    15:00 +13°C° 0.4 mm 3 m/S 739 mmHg 93%
    16:00 +14°C° 0.4 mm 3 m/S 739 mmHg 92%
    17:00 +14°C° 0.4 mm 3 m/S 739 mmHg 92%
    18:00 +13°C° 0.1 mm 3 m/S 738 mmHg 93%
    19:00 +14°C° 0.1 mm 2 m/S 738 mmHg 95%
    20:00 +14°C° 0.1 mm 2 m/S 738 mmHg 96%
    21:00 +14°C° 0.3 mm 2 m/S 737 mmHg 96%
    22:00 +14°C° 0.3 mm 2 m/S 737 mmHg 96%
    23:00 +13°C° 0.3 mm 3 m/S 737 mmHg 96%
    Mehr zeigen